World > North America > United States > Texas > Terrell  

Terrell, TX Hourly Weather Updates

Feedback E-mail the Weather

Quick Clicks

Terrell, TX Weather Maps

°F °C°F °C
Terrell Weather Map
UTC Time: 6/18/2024, 22:01
Your Time:

Terrell, TX Regional Weather

Expires:202406182300;;256512
ASUS44 KFWD 182201
RWRTX 
NORTH TEXAS HOURLY WEATHER ROUNDUP
NATIONAL WEATHER SERVICE FORT WORTH TX
500 PM CDT TUE JUN 18 2024

NOTE: "FAIR" INDICATES FEW OR NO CLOUDS BELOW 12,000 FEET WITH NO
SIGNIFICANT WEATHER AND/OR OBSTRUCTIONS TO VISIBILITY.


TXZ091>094-102>105-117-120-121-131>134-182300-
NORTH CENTRAL TEXAS
  
CITY           SKY/WX    TMP DP  RH WIND       PRES   REMARKS
SHRMAN/DENISON MOSUNNY   91  66  43 SE16      29.87F HX  94           
BOWIE          FAIR      88  69  54 S10G23    29.83F HX  92           
DECATUR        FAIR      88  66  48 SE17G24   29.85F HX  90           
DENTON         FAIR      92  69  47 SE17      29.84F HX  97           
MCKINNEY       FAIR      92  68  45 SE15G26   29.86S HX  96           
TERRELL        FAIR      91  69  48 SE12G24   29.86F HX  96           
WAXAHACHIE     FAIR      90  70  52 SE6G17    29.86F HX  95           
CLEBURNE       SUNNY     91  68  46 SE14G24   29.85F HX  95           
$$


SKY/WX - Weather  TMP - Temperature  DP - Dew Point  RH - Humidity
WIND - Wind Direction/Speed PRES - Barometric Pressure VSB - Visibility
WCI - Wind Chill Index E13G22 Wind - East Wind 13 mph/Gusts of 22 mph

Trending Headlines

Trending Entertainment Headlines

Terrell Radar Loop

Use the map search tool if you want to place a location marker on the radar map...

Terrell Quick Facts

National Two Day Weather Forecast


E-mail the Terrell Weather Forecast

Voice your opinion or tell us about page issues...